Regional Weather Roundup
Issued by NWS

Home | Current Version | Previous Version | Text Only | Print | Product List | Glossary On
Versions: 1 2 3 4 5 6 7 8 9 10 11 12 13 14 15 16 17 18 19 20 21 22 23 24 25 26 27 28 29 30 31 32 33 34 35 36 37 38 39 40 41 42 43 44 45 46 47 48 49 50
000
ASUS44 KJAN 231703
RWRMS

MISSISSIPPI HOURLY WEATHER ROUNDUP
NATIONAL WEATHER SERVICE JACKSON MS
1200 PM CDT SAT JUL 23 2016

NOTE: "FAIR: INDICATES FEW OR NO CLOUDS BELOW 12,000 FEET WITH NO
SIGNIFICANT WEATHER AND/OR OBSTRUCTIONS TO VISIBILITY.

MSZ001>002-007>008-010>013-018>021-025>028-034>036-231800-
NORTHWEST MISSISSIPPI

CITY           SKY/WX    TMP DP  RH WIND       PRES   REMARKS
CLEVELAND      FAIR      91  80  69 CALM      29.99R HX 108
GREENWOOD      PTSUNNY   89  74  60 NE9       30.01R HX  98
GREENVILLE     SUNNY     95  73  48 W6        29.98F HX 104
OXFORD         LGT RAIN  73  72  94 S8        30.07R
WINONA         CLOUDY    80  74  84 N14       30.04R
$$

MSZ003>006-009-014>017-022>024-029>033-037>039-231800-
NORTHEAST MISSISSIPPI

CITY           SKY/WX    TMP DP  RH WIND       PRES   REMARKS
ABERDEEN       FAIR      90  72  55 W5        30.04R HX  96
COLUMBUS AFB   MOSUNNY   89  81  76 VRB1      30.01R HX 108
GOLDN TRIANGLE PTSUNNY   90  73  58 W5        30.01R HX  98
TUPELO         CLOUDY    76  72  87 CALM      30.04F
$$

MSZ040-058-231800-
CENTRAL MISSISSIPPI

CITY           SKY/WX    TMP DP  RH WIND       PRES   REMARKS
JACKSON INTL   MOSUNNY   91  75  59 VRB5      30.01S HX 101
JACKSON HAWKNS MOSUNNY   90  75  61 SW6       30.01S HX 100
MADISON        FAIR      90  73  58 S3        30.01S HX  98
MERIDIAN KEY   SUNNY     91  73  55 CALM      30.01S HX  99
MERIDIAN NAS   MOSUNNY   92  73  53 S7        30.01S HX 100
VICKSBURG VKS  SUNNY     88  77  70 CALM      30.00F HX 100
$$

MSZ059>079-231800-
SOUTH MISSISSIPPI

CITY           SKY/WX    TMP DP  RH WIND       PRES   REMARKS
COLUMBIA       FAIR      88  73  62 CALM      30.05S HX  96
HATTIESBURG    SUNNY     89  73  59 CALM      30.02S HX  97
MCCOMB         PTSUNNY   87  76  69 W7        30.02S HX  97
NATCHEZ        PTSUNNY   88  77  70 W6        30.02S HX 100
PINE BELT      PTSUNNY   86  73  66 SW3       30.04S HX  93
$$

MSZ080>082-231800-
COASTAL MISSISSIPPI

CITY           SKY/WX    TMP DP  RH WIND       PRES   REMARKS
BAY ST LOUIS   MOSUNNY   90  70  51 SE5       30.00F HX  95
BILOXI         MOSUNNY   89  75  63 VRB5      30.00F HX  98
PASCAGOULA     MOSUNNY   89  76  65 VRB5      30.01F HX 100
GULFPORT       SUNNY     88  75  65 VRB5      30.00F HX  97
$$

LAZ007>009-015>016-023>026-231800-
NORTHEAST LOUISIANA

CITY           SKY/WX    TMP DP  RH WIND       PRES   REMARKS
BASTROP        FAIR      93  76  58 CALM      30.00S HX 105
TALLULAH/VBURG MOSUNNY   89  77  67 CALM      30.00S HX 101
VIDALIA        PTSUNNY   88  78  72 CALM      30.04S HX 101
$$



USA.gov is the U.S. government's official web portal to all federal, state and local government web resources and services.